Dewpoint
70 70 70 71 71 70 69 69 68 71 71 69 69 67 66 70 68 67 66 65 64 63 59 60 72 72 72 75 70 72 72 72 69 68 73 75 78 73 72 73 72 72 71 71 71 72 72 71 72 71 70 69 69 68 68 67 66 65 65 65 65 64 64 64 64 64 64 64 65 65 66 67 67 68
72 71 71 70 70 71 68 67 66 71 73 70 68 68 69 71 70 70 68 69 66 62 63 57 66 75 71 70 69 68 70 74 71 70 72 74 77 72 72 72 71 72 71 70 70 71 70 70 69 69 68 68 67 67 66 65 65 65 64 64 64 63 63 63 63 64 64 64 64 65 66 66 66 67
72 74 72 73 72 73 70 70 67 69 70 70 69 69 70 71 71 72 71 68 69 66 65 62 63 64 68 67 66 67 69 71 71 70 73 75 75 73 75 72 72 71 71 69 69 69 69 68 68 68 67 67 67 66 65 64 64 64 64 63 62 62 62 63 63 63 63 63 64 65 65 65 65 66
72 74 72 74 73 73 73 72 70 69 70 70 69 69 70 71 72 73 73 72 70 70 65 66 66 64 68 68 70 71 70 76 73 72 73 75 74 77 77 72 71 70 69 69 68 67 67 66 67 67 67 66 65 64 64 63 63 63 62 62 62 61 61 62 62 62 62 63 63 63 64 64 64 65
72 74 74 74 74 75 73 73 70 68 68 70 69 70 69 68 71 72 73 72 72 72 70 68 66 66 69 67 71 71 70 69 70 71 72 73 73 71 74 76 70 69 68 68 67 66 66 66 66 66 66 65 64 63 63 62 62 62 62 61 61 60 61 61 61 61 61 62 63 63 63 63 64 65
70 72 73 72 71 72 72 70 67 66 65 65 65 66 67 67 68 71 71 72 72 71 71 69 71 67 68 69 72 72 70 70 72 71 72 70 69 72 70 77 75 68 68 67 66 66 65 64 65 65 65 64 63 62 62 62 60 61 61 60 60 60 60 60 60 60 60 61 62 62 63 63 63 64
72 71 72 70 70 67 68 69 68 66 66 65 66 65 65 68 68 69 72 73 72 72 71 71 69 69 69 70 71 71 70 73 71 74 73 69 66 68 69 72 73 67 67 66 66 65 64 64 64 64 64 63 62 61 61 59 60 59 59 59 59 59 59 58 59 59 59 60 60 62 62 62 63 63
70 70 71 69 69 68 69 70 69 68 67 68 68 67 69 70 68 69 70 72 74 73 72 73 70 70 71 70 70 70 71 69 70 71 72 71 71 70 68 67 72 68 67 66 65 65 64 63 63 63 62 62 61 61 59 60 59 59 59 58 58 58 58 58 57 58 58 58 58 61 61 62 63 63
70 70 69 69 70 70 70 70 69 68 68 67 68 67 69 69 70 70 71 72 72 73 73 73 74 73 72 72 72 72 72 71 70 71 74 73 74 74 71 65 72 68 66 66 65 64 64 64 62 62 62 61 61 60 60 59 59 58 57 57 58 58 57 57 57 57 57 57 57 59 60 60 61 61
70 69 70 69 68 68 69 68 68 70 69 68 68 69 69 69 70 72 73 74 74 73 73 73 71 72 70 72 73 72 73 71 70 69 69 70 73 76 74 71 68 69 67 66 63 64 63 63 62 62 62 62 61 60 60 60 58 58 57 56 57 57 56 56 56 56 56 56 56 57 58 59 60 61
66 66 66 68 68 68 69 68 68 68 69 69 70 71 71 71 71 70 71 72 72 73 72 72 72 71 70 71 71 73 74 75 74 73 71 71 73 74 74 75 73 69 68 69 67 66 66 64 61 60 61 61 61 61 59 59 58 58 57 56 57 56 56 56 56 55 55 56 56 57 57 57 59 60
62 63 63 62 64 66 68 68 69 69 68 70 70 70 71 71 72 71 69 70 69 70 70 70 69 68 71 71 69 67 70 71 73 74 73 73 73 73 74 73 73 74 74 72 68 66 66 64 63 61 61 62 62 61 60 60 60 59 58 58 58 58 57 56 56 55 55 55 55 56 57 57 57 57
64 62 61 60 59 66 73 74 74 73 76 71 71 72 73 73 73 73 72 71 72 70 69 70 70 68 69 70 71 68 69 70 71 72 71 71 71 72 72 74 73 72 72 72 68 69 70 66 65 63 63 62 62 61 61 62 60 59 58 59 58 58 57 56 56 55 55 55 55 55 56 56 56 57
62 61 61 58 70 73 74 75 76 73 74 74 69 67 71 73 74 74 74 73 72 71 70 68 68 67 66 64 68 66 66 68 70 68 72 72 72 73 72 73 73 72 71 70 74 73 70 67 68 68 68 65 64 63 61 59 57 58 58 58 58 58 58 57 56 55 55 55 55 55 54 55 56 56
63 61 60 61 64 73 76 74 74 73 71 71 71 71 72 75 74 74 73 73 73 72 70 69 69 67 68 67 67 66 62 61 62 63 68 68 70 72 72 71 73 74 74 75 75 75 75 74 71 73 71 68 68 63 60 59 59 59 58 58 57 57 57 57 57 56 55 55 55 55 55 55 55 56
65 63 60 58 55 58 62 64 73 74 71 70 70 70 70 70 70 71 74 74 73 73 71 70 69 68 69 69 69 65 63 66 66 68 68 71 70 71 71 71 71 74 73 74 74 74 75 73 72 74 72 71 69 58 59 58 58 58 58 57 57 57 57 57 56 56 55 55 55 56 56 56 56 55
67 66 65 62 59 54 71 71 63 74 75 69 67 69 70 70 70 67 67 69 75 72 73 73 72 71 71 71 71 70 70 71 70 71 69 70 69 71 70 70 69 73 76 73 71 70 70 71 70 71 73 69 59 56 59 59 59 59 58 57 57 57 56 56 56 56 55 55 55 54 54 55 55 54
66 69 69 67 65 64 65 68 68 69 70 75 76 74 74 73 73 70 67 67 67 71 72 72 72 73 74 73 74 75 75 74 73 70 67 70 69 70 71 72 73 74 70 71 70 71 69 69 67 68 69 68 64 62 58 59 59 59 58 58 57 57 56 56 56 55 55 55 54 54 53 52 52 52
64 68 67 70 69 71 71 68 68 67 69 72 72 75 75 75 74 74 73 71 70 71 70 70 72 73 73 74 74 75 76 75 75 74 75 74 73 73 74 73 73 72 72 71 71 70 70 70 68 68 68 70 67 61 57 59 59 58 58 57 58 57 57 57 55 56 55 55 54 54 53 52 52 52
69 67 67 70 71 72 73 72 68 70 71 70 71 73 73 73 73 72 74 69 69 70 70 71 69 69 69 68 73 75 74 74 76 73 71 72 75 74 73 72 70 67 67 68 70 70 71 71 65 66 66 72 65 62 58 58 59 59 58 58 58 57 56 56 56 56 56 56 55 54 53 51 50 51
70 69 70 73 68 68 72 70 65 65 70 71 69 71 72 71 69 68 68 68 66 66 64 65 66 65 65 64 64 64 65 75 73 74 71 69 67 67 68 66 65 66 66 63 62 65 70 71 69 66 66 70 69 65 61 57 58 58 58 58 58 56 55 56 56 56 56 55 55 54 53 51 51 52
72 72 72 73 70 70 72 66 63 63 69 73 71 70 69 69 69 69 67 64 69 64 63 64 65 65 65 66 66 66 66 66 71 74 72 67 65 65 64 63 63 64 65 65 65 68 61 62 67 68 68 71 71 67 63 60 58 58 57 56 56 56 56 55 55 56 56 55 55 54 52 51 52 62
71 72 72 73 71 70 71 64 62 61 68 72 72 71 70 69 69 68 66 66 66 70 72 74 73 74 71 74 75 75 69 68 72 74 72 70 68 66 65 63 65 63 63 63 72 70 68 70 67 69 67 67 67 67 63 61 59 57 58 59 58 55 55 55 54 54 55 55 54 54 52 51 53 64
71 72 72 73 63 62 62 61 60 59 60 72 73 72 70 70 70 70 68 68 66 70 68 73 74 75 74 74 74 75 74 74 74 73 73 71 70 69 67 66 65 64 64 66 63 70 68 68 66 67 65 65 64 68 66 66 65 63 63 63 62 57 56 56 55 54 53 53 53 53 52 52 52 62
69 70 70 70 66 60 59 58 58 57 56 63 74 73 73 73 76 74 71 71 74 70 72 73 74 73 75 74 74 73 74 73 73 73 72 72 70 69 67 65 65 64 63 64 67 72 73 67 66 67 70 67 66 68 71 70 68 66 65 64 63 64 59 59 60 60 53 53 52 51 52 53 53 56
70 70 70 71 69 59 58 57 57 56 57 57 72 75 64 64 65 76 73 72 71 71 71 69 68 69 68 67 68 68 68 70 71 71 72 72 70 69 68 68 68 65 66 83 69 77 75 73 70 70 69 68 66 67 68 69 70 67 64 63 62 62 61 61 58 62 63 61 61 56 58 53 53 53
70 70 71 72 71 60 55 55 55 55 56 58 66 62 61 61 62 69 72 71 70 69 69 70 71 71 69 68 67 68 67 67 69 64 66 71 72 72 71 71 69 69 68 72 79 76 76 74 75 72 70 70 70 67 67 66 67 68 63 61 62 61 59 58 58 58 59 61 63 54 52 51 52 53
69 71 71 72 63 60 52 52 54 55 56 63 58 58 59 61 63 70 71 70 71 71 69 70 70 71 71 71 70 69 70 69 72 70 67 68 68 73 72 74 72 72 73 71 72 77 78 76 74 75 74 72 70 67 67 67 67 65 63 62 60 58 57 56 57 58 58 61 61 63 61 61 60 59
69 65 59 57 58 59 53 51 53 54 54 55 57 57 58 62 68 70 70 70 70 70 70 70 71 70 71 72 72 74 76 76 75 76 71 70 70 68 73 75 75 75 72 70 72 75 76 76 76 76 76 74 70 71 69 68 67 66 64 61 59 58 59 58 59 57 59 59 59 59 59 59 58 60
62 59 57 57 59 60 59 66 68 68 68 58 56 57 60 66 67 69 69 71 70 70 69 69 70 70 71 71 73 76 77 76 75 74 74 72 70 72 72 73 72 72 70 71 72 73 74 76 77 76 75 75 72 71 71 69 69 68 65 61 61 60 59 57 56 58 59 60 59 60 59 58 58 59
65 67 65 65 62 62 63 66 68 68 68 68 64 63 64 66 68 69 70 70 70 70 70 69 69 70 71 72 74 75 76 76 75 75 75 73 72 73 72 74 74 73 74 73 72 73 73 75 76 76 75 74 73 73 73 71 69 67 65 62 61 58 58 58 59 58 59 60 60 59 60 59 57 57
66 66 64 65 69 71 70 70 69 69 70 70 70 70 68 68 68 69 69 70 71 71 71 71 71 71 74 73 71 71 71 72 73 75 74 74 74 73 73 73 73 72 72 72 73 75 77 76 76 77 76 75 74 73 73 72 70 68 66 62 60 60 60 57 57 59 60 61 59 59 61 60 59 58
71 70 69 69 68 69 67 67 68 68 69 69 69 70 71 71 70 70 69 69 70 71 71 71 72 71 72 72 71 71 70 73 72 75 76 77 76 76 75 72 70 70 70 71 73 74 76 77 77 77 77 76 76 75 73 70 70 67 65 63 60 59 59 58 58 60 64 63 62 60 62 62 61 59
68 69 70 69 69 69 69 69 69 69 70 70 70 70 67 70 70 70 70 70 69 71 71 71 71 72 72 71 71 71 71 73 72 73 71 76 76 75 74 72 72 72 72 70 70 70 75 76 76 76 76 76 76 75 74 71 68 67 66 64 61 59 59 60 60 62 64 62 63 60 60 59 59 58
67 68 70 70 70 70 70 70 69 70 69 69 70 70 70 71 70 69 69 70 71 69 70 70 71 71 71 71 70 70 70 71 71 72 73 73 75 74 72 72 71 72 71 70 71 73 71 74 74 73 73 72 72 73 71 74 69 67 67 65 64 60 61 60 59 62 62 62 60 61 60 60 59 58
68 68 69 70 71 71 70 70 69 69 69 69 70 71 70 69 68 68 70 72 71 71 71 70 70 70 71 70 70 70 70 69 70 70 70 70 71 72 72 72 71 72 72 71 71 71 70 72 72 70 68 68 68 67 68 67 68 70 66 64 63 65 62 62 63 63 61 59 62 61 59 58 59 59
68 70 71 71 72 71 71 71 71 70 70 70 69 70 71 70 69 69 73 72 74 71 71 72 71 71 71 70 71 69 70 70 70 70 70 70 70 70 70 70 71 72 71 71 71 70 71 71 71 70 68 67 66 65 66 70 65 66 70 64 65 64 64 65 63 63 61 60 61 59 58 57 58 60
67 69 71 71 71 72 71 71 70 71 71 72 72 71 71 71 72 74 77 76 74 71 71 71 70 71 71 71 71 70 70 70 70 70 69 70 70 70 69 69 70 71 71 72 71 71 71 71 71 70 69 67 66 66 65 67 68 64 63 69 64 63 66 65 61 59 62 61 60 60 59 57 58 61
69 69 70 71 71 72 72 72 71 71 72 71 71 71 72 71 71 73 72 71 73 72 72 72 72 71 71 71 70 70 71 70 70 70 70 70 70 70 69 69 69 70 71 71 71 70 71 72 71 71 70 68 67 67 67 66 66 67 63 59 66 65 63 63 60 59 60 60 60 63 61 67 57 55
68 70 71 71 71 72 72 72 71 71 71 72 72 72 72 71 71 71 71 71 73 75 73 72 73 71 72 71 71 70 70 71 70 70 69 69 69 69 70 70 70 70 72 70 69 70 70 70 71 71 70 70 70 71 71 71 70 67 66 62 58 65 64 63 61 60 60 60 60 58 59 62 60 60
68 70 71 71 72 72 72 72 71 71 72 73 74 70 73 73 73 71 72 72 72 75 72 72 74 74 74 76 74 74 73 71 69 68 68 69 68 69 68 67 71 70 70 70 70 70 70 71 73 67 72 73 74 71 69 68 66 65 63 63 54 54 56 58 64 63 62 62 60 57 57 58 58 60
70 70 71 72 72 72 72 72 72 71 72 72 72 72 74 75 75 70 76 74 76 74 73 73 73 75 75 73 71 71 71 71 70 69 68 69 69 69 68 70 70 71 71 70 70 71 72 74 74 72 72 72 70 68 66 66 66 65 65 63 62 55 53 53 54 57 70 61 58 58 59 58 59 58
71 71 71 71 72 72 72 72 72 72 72 72 72 73 72 73 75 75 76 75 75 74 73 73 74 75 72 73 72 71 71 70 70 72 70 69 69 69 70 71 71 71 71 71 72 72 72 74 75 73 71 71 69 68 67 66 66 67 67 63 61 61 61 55 53 52 53 53 52 59 63 63 57 55
72 72 72 72 72 73 73 73 72 73 73 74 72 73 74 74 75 75 74 74 75 74 74 75 74 71 72 71 71 71 71 70 71 71 71 70 70 70 70 70 70 72 71 72 72 72 71 72 73 71 70 69 68 67 67 67 66 65 65 64 64 62 60 58 59 55 53 53 53 52 51 52 52 52
72 73 73 73 72 72 72 72 73 74 73 74 74 74 73 74 73 74 74 75 75 75 75 75 72 71 70 70 70 70 70 68 70 71 71 71 71 70 71 71 71 72 72 72 71 71 71 72 72 71 70 69 68 67 66 66 66 65 65 66 63 61 59 58 57 57 57 59 57 54 53 53 53 52